Time,TemperatureF,DewpointF,PressureIn,WindDirection,WindDirectionDegrees,WindSpeedMPH,WindSpeedGustMPH,Humidity,HourlyPrecipIn,Conditions,Clouds,dailyrainin,SoftwareType,DateUTC
2013-02-02 00:08:00,20.9,14.0,30.24,SW,215,0.0,-999.0,74,-99.99,,,0.00,weatherlink.com 1.10,2013-02-02 06:08:00,
2013-02-02 00:23:00,20.8,14.0,30.24,SSW,205,10.0,-999.0,74,-99.99,,,0.00,weatherlink.com 1.10,2013-02-02 06:23:00,
2013-02-02 00:38:00,20.4,15.0,30.23,SW,233,8.0,-999.0,78,-99.99,,,0.00,weatherlink.com 1.10,2013-02-02 06:38:00,
2013-02-02 00:53:00,20.1,15.0,30.23,SW,215,9.0,-999.0,81,-99.99,,,0.00,weatherlink.com 1.10,2013-02-02 06:53:00,
2013-02-02 01:09:00,19.7,16.0,30.24,SSW,209,6.0,-999.0,85,-99.99,,,0.00,weatherlink.com 1.10,2013-02-02 07:09:00,
2013-02-02 01:24:00,19.7,16.0,30.24,South,185,9.0,-999.0,86,-99.99,,,0.00,weatherlink.com 1.10,2013-02-02 07:24:00,
2013-02-02 01:39:00,19.7,17.0,30.24,SSW,200,5.0,-999.0,87,-99.99,,,0.00,weatherlink.com 1.10,2013-02-02 07:39:00,
2013-02-02 01:54:00,19.7,17.0,30.24,SSW,205,6.0,-999.0,88,-99.99,,,0.00,weatherlink.com 1.10,2013-02-02 07:54:00,
2013-02-02 02:09:00,19.9,17.0,30.23,SSW,194,5.0,-999.0,89,-99.99,,,0.00,weatherlink.com 1.10,2013-02-02 08:09:00,
2013-02-02 02:24:00,20.0,17.0,30.21,South,182,0.0,-999.0,89,-99.99,,,0.00,weatherlink.com 1.10,2013-02-02 08:24:00,
2013-02-02 02:39:00,20.0,18.0,30.20,South,176,0.0,-999.0,90,-99.99,,,0.00,weatherlink.com 1.10,2013-02-02 08:39:00,
2013-02-02 02:54:00,20.0,18.0,30.19,South,172,0.0,-999.0,90,-99.99,,,0.00,weatherlink.com 1.10,2013-02-02 08:54:00,
2013-02-02 03:09:00,20.1,18.0,30.18,South,172,2.0,-999.0,90,-99.99,,,0.00,weatherlink.com 1.10,2013-02-02 09:09:00,
2013-02-02 03:24:00,20.2,18.0,30.17,SSE,168,0.0,-999.0,90,-99.99,,,0.00,weatherlink.com 1.10,2013-02-02 09:24:00,
2013-02-02 03:39:00,20.2,18.0,30.16,SSE,165,4.0,-999.0,90,-99.99,,,0.00,weatherlink.com 1.10,2013-02-02 09:39:00,
2013-02-02 03:54:00,20.3,18.0,30.14,South,169,3.0,-999.0,90,-99.99,,,0.00,weatherlink.com 1.10,2013-02-02 09:54:00,
2013-02-02 04:09:00,20.4,18.0,30.14,SSE,161,0.0,-999.0,90,-99.99,,,0.00,weatherlink.com 1.10,2013-02-02 10:09:00,
2013-02-02 04:24:00,20.6,18.0,30.13,SSE,167,5.0,-999.0,90,-99.99,,,0.00,weatherlink.com 1.10,2013-02-02 10:24:00,
2013-02-02 04:39:00,20.8,18.0,30.13,SSE,161,2.0,-999.0,90,-99.99,,,0.00,weatherlink.com 1.10,2013-02-02 10:39:00,
2013-02-02 04:54:00,21.2,19.0,30.12,SSE,161,1.0,-999.0,90,-99.99,,,0.00,weatherlink.com 1.10,2013-02-02 10:54:00,
2013-02-02 05:10:00,21.6,19.0,30.12,SSW,205,6.0,-999.0,90,-99.99,,,0.00,weatherlink.com 1.10,2013-02-02 11:10:00,
2013-02-02 05:25:00,21.7,19.0,30.11,SSW,198,2.0,-999.0,90,-99.99,,,0.00,weatherlink.com 1.10,2013-02-02 11:25:00,
2013-02-02 05:40:00,21.9,19.0,30.10,South,180,2.0,-999.0,89,-99.99,,,0.00,weatherlink.com 1.10,2013-02-02 11:40:00,
2013-02-02 05:55:00,22.0,19.0,30.10,SSW,196,2.0,-999.0,89,-99.99,,,0.00,weatherlink.com 1.10,2013-02-02 11:55:00,
2013-02-02 06:10:00,22.1,19.0,30.09,SSW,209,2.0,-999.0,88,-99.99,,,0.00,weatherlink.com 1.10,2013-02-02 12:10:00,
2013-02-02 06:25:00,22.3,19.0,30.09,SSW,205,7.0,-999.0,87,-99.99,,,0.00,weatherlink.com 1.10,2013-02-02 12:25:00,
2013-02-02 06:40:00,22.6,19.0,30.09,SSW,199,1.0,-999.0,85,-99.99,,,0.00,weatherlink.com 1.10,2013-02-02 12:40:00,
2013-02-02 06:55:00,22.8,18.0,30.08,South,188,5.0,-999.0,83,-99.99,,,0.00,weatherlink.com 1.10,2013-02-02 12:55:00,
2013-02-02 07:10:00,22.7,18.0,30.08,SSW,199,8.0,-999.0,83,-99.99,,,0.00,weatherlink.com 1.10,2013-02-02 13:10:00,
2013-02-02 07:25:00,22.8,18.0,30.08,SSW,209,11.0,-999.0,83,-99.99,,,0.00,weatherlink.com 1.10,2013-02-02 13:25:00,
2013-02-02 07:40:00,23.0,19.0,30.08,SSW,205,14.0,-999.0,83,-99.99,,,0.00,weatherlink.com 1.10,2013-02-02 13:40:00,
2013-02-02 07:55:00,23.0,19.0,30.08,SSW,200,7.0,-999.0,83,-99.99,,,0.00,weatherlink.com 1.10,2013-02-02 13:55:00,
2013-02-02 08:10:00,23.1,19.0,30.08,SSW,198,6.0,-999.0,85,-99.99,,,0.00,weatherlink.com 1.10,2013-02-02 14:10:00,
2013-02-02 08:25:00,23.2,20.0,30.08,SW,217,0.0,-999.0,87,-99.99,,,0.00,weatherlink.com 1.10,2013-02-02 14:25:00,
2013-02-02 08:40:00,23.4,20.0,30.07,SW,226,4.0,-999.0,87,-99.99,,,0.00,weatherlink.com 1.10,2013-02-02 14:40:00,
2013-02-02 08:55:00,23.6,21.0,30.07,SW,223,6.0,-999.0,88,-99.99,,,0.00,weatherlink.com 1.10,2013-02-02 14:55:00,
2013-02-02 09:10:00,23.7,21.0,30.06,SW,232,7.0,-999.0,88,-99.99,,,0.00,weatherlink.com 1.10,2013-02-02 15:10:00,
2013-02-02 09:25:00,24.0,21.0,30.05,WSW,246,2.0,-999.0,88,-99.99,,,0.00,weatherlink.com 1.10,2013-02-02 15:25:00,
2013-02-02 09:40:00,24.4,21.0,30.05,SSW,201,7.0,-999.0,88,-99.99,,,0.00,weatherlink.com 1.10,2013-02-02 15:40:00,
2013-02-02 09:55:00,24.7,21.0,30.05,SW,228,3.0,-999.0,87,-99.99,,,0.00,weatherlink.com 1.10,2013-02-02 15:55:00,
2013-02-02 10:10:00,25.2,22.0,30.05,SW,224,0.0,-999.0,87,-99.99,,,0.00,weatherlink.com 1.10,2013-02-02 16:10:00,
2013-02-02 10:25:00,25.8,23.0,30.05,West,273,8.0,-999.0,87,-99.99,,,0.00,weatherlink.com 1.10,2013-02-02 16:25:00,
2013-02-02 10:40:00,26.3,22.0,30.05,West,259,4.0,-999.0,85,-99.99,,,0.00,weatherlink.com 1.10,2013-02-02 16:40:00,
2013-02-02 10:55:00,26.7,23.0,30.05,West,265,0.0,-999.0,85,-99.99,,,0.00,weatherlink.com 1.10,2013-02-02 16:55:00,
2013-02-02 11:11:00,27.2,23.0,30.05,West,267,6.0,-999.0,85,-99.99,,,0.00,weatherlink.com 1.10,2013-02-02 17:11:00,
2013-02-02 11:27:00,27.5,24.0,30.04,WNW,288,6.0,-999.0,85,-99.99,,,0.00,weatherlink.com 1.10,2013-02-02 17:27:00,
2013-02-02 11:41:00,27.6,23.0,30.04,WNW,302,2.0,-999.0,84,-99.99,,,0.00,weatherlink.com 1.10,2013-02-02 17:41:00,
2013-02-02 11:56:00,27.7,24.0,30.03,WSW,257,8.0,-999.0,84,-99.99,,,0.00,weatherlink.com 1.10,2013-02-02 17:56:00,
2013-02-02 12:11:00,27.9,23.0,30.02,NW,315,2.0,-999.0,83,-99.99,,,0.00,weatherlink.com 1.10,2013-02-02 18:11:00,
2013-02-02 12:26:00,27.9,23.0,30.02,NW,323,2.0,-999.0,83,-99.99,,,0.00,weatherlink.com 1.10,2013-02-02 18:26:00,
2013-02-02 12:41:00,27.9,23.0,30.02,NW,323,4.0,-999.0,83,-99.99,,,0.00,weatherlink.com 1.10,2013-02-02 18:41:00,
2013-02-02 12:56:00,27.7,23.0,30.02,WNW,300,4.0,-999.0,83,-99.99,,,0.00,weatherlink.com 1.10,2013-02-02 18:56:00,
2013-02-02 13:11:00,27.7,23.0,30.02,NNW,337,2.0,-999.0,83,-99.99,,,0.00,weatherlink.com 1.10,2013-02-02 19:11:00,
2013-02-02 13:26:00,27.7,23.0,30.02,NW,321,3.0,-999.0,83,-99.99,,,0.00,weatherlink.com 1.10,2013-02-02 19:26:00,
2013-02-02 13:41:00,27.7,23.0,30.03,NNW,327,0.0,-999.0,83,-99.99,,,0.00,weatherlink.com 1.10,2013-02-02 19:41:00,
2013-02-02 13:56:00,27.6,23.0,30.03,WNW,289,5.0,-999.0,84,-99.99,,,0.00,weatherlink.com 1.10,2013-02-02 19:56:00,
2013-02-02 14:11:00,27.5,23.0,30.02,WNW,295,4.0,-999.0,84,-99.99,,,0.00,weatherlink.com 1.10,2013-02-02 20:11:00,
2013-02-02 14:26:00,27.4,24.0,30.03,NW,313,0.0,-999.0,85,-99.99,,,0.00,weatherlink.com 1.10,2013-02-02 20:26:00,
2013-02-02 14:41:00,27.2,24.0,30.03,NNW,334,5.0,-999.0,86,-99.99,,,0.00,weatherlink.com 1.10,2013-02-02 20:41:00,
2013-02-02 14:56:00,26.4,23.0,30.04,West,279,3.0,-999.0,87,-99.99,,,0.00,weatherlink.com 1.10,2013-02-02 20:56:00,
2013-02-02 15:11:00,26.1,23.0,30.04,NW,309,8.0,-999.0,88,-99.99,,,0.00,weatherlink.com 1.10,2013-02-02 21:11:00,
2013-02-02 15:26:00,25.7,22.0,30.05,NW,321,5.0,-999.0,87,-99.99,,,0.00,weatherlink.com 1.10,2013-02-02 21:26:00,
2013-02-02 15:41:00,23.6,20.0,30.06,NW,319,7.0,-999.0,87,-99.99,,,0.00,weatherlink.com 1.10,2013-02-02 21:41:00,
2013-02-02 15:56:00,22.9,19.0,30.07,NW,306,2.0,-999.0,85,-99.99,,,0.00,weatherlink.com 1.10,2013-02-02 21:56:00,
2013-02-02 16:11:00,22.2,18.0,30.08,NW,310,4.0,-999.0,85,-99.99,,,0.00,weatherlink.com 1.10,2013-02-02 22:11:00,
2013-02-02 16:26:00,21.3,17.0,30.08,NW,319,6.0,-999.0,83,-99.99,,,0.00,weatherlink.com 1.10,2013-02-02 22:26:00,
2013-02-02 16:41:00,20.6,16.0,30.08,NW,317,2.0,-999.0,82,-99.99,,,0.00,weatherlink.com 1.10,2013-02-02 22:41:00,
2013-02-02 16:56:00,20.3,16.0,30.08,NW,305,5.0,-999.0,83,-99.99,,,0.00,weatherlink.com 1.10,2013-02-02 22:56:00,
2013-02-02 17:11:00,20.1,16.0,30.09,NW,307,4.0,-999.0,84,-99.99,,,0.00,weatherlink.com 1.10,2013-02-02 23:11:00,
2013-02-02 17:26:00,19.4,15.0,30.09,NNW,331,4.0,-999.0,83,-99.99,,,0.00,weatherlink.com 1.10,2013-02-02 23:26:00,
2013-02-02 17:41:00,18.8,15.0,30.09,WNW,298,3.0,-999.0,84,-99.99,,,0.00,weatherlink.com 1.10,2013-02-02 23:41:00,
2013-02-02 17:57:00,18.1,14.0,30.11,NW,310,7.0,-999.0,84,-99.99,,,0.00,weatherlink.com 1.10,2013-02-02 23:57:00,
2013-02-02 18:12:00,17.3,13.0,30.11,NNW,332,2.0,-999.0,83,-99.99,,,0.00,weatherlink.com 1.10,2013-02-03 00:12:00,
2013-02-02 18:27:00,16.8,13.0,30.11,NW,304,8.0,-999.0,83,-99.99,,,0.00,weatherlink.com 1.10,2013-02-03 00:27:00,
2013-02-02 18:42:00,16.4,12.0,30.12,NW,316,2.0,-999.0,81,-99.99,,,0.00,weatherlink.com 1.10,2013-02-03 00:42:00,
2013-02-02 18:57:00,16.1,11.0,30.12,NNW,331,6.0,-999.0,81,-99.99,,,0.00,weatherlink.com 1.10,2013-02-03 00:57:00,
2013-02-02 19:12:00,15.8,11.0,30.12,NNW,327,0.0,-999.0,81,-99.99,,,0.00,weatherlink.com 1.10,2013-02-03 01:12:00,
2013-02-02 19:27:00,15.4,11.0,30.13,NNW,332,4.0,-999.0,82,-99.99,,,0.00,weatherlink.com 1.10,2013-02-03 01:27:00,
2013-02-02 19:43:00,15.2,10.0,30.12,NNW,327,9.0,-999.0,80,-99.99,,,0.00,weatherlink.com 1.10,2013-02-03 01:43:00,
2013-02-02 19:58:00,14.8,10.0,30.12,WNW,302,1.0,-999.0,81,-99.99,,,0.00,weatherlink.com 1.10,2013-02-03 01:58:00,
2013-02-02 20:12:00,14.7,10.0,30.12,NW,316,4.0,-999.0,82,-99.99,,,0.00,weatherlink.com 1.10,2013-02-03 02:12:00,
2013-02-02 20:27:00,14.7,10.0,30.11,NW,307,0.0,-999.0,81,-99.99,,,0.00,weatherlink.com 1.10,2013-02-03 02:27:00,
2013-02-02 20:42:00,14.5,10.0,30.11,NW,319,1.0,-999.0,81,-99.99,,,0.00,weatherlink.com 1.10,2013-02-03 02:42:00,
2013-02-02 20:57:00,14.1,9.0,30.11,NW,320,1.0,-999.0,80,-99.99,,,0.00,weatherlink.com 1.10,2013-02-03 02:57:00,
2013-02-02 21:12:00,13.7,9.0,30.11,NW,319,0.0,-999.0,81,-99.99,,,0.00,weatherlink.com 1.10,2013-02-03 03:12:00,
2013-02-02 21:27:00,13.5,9.0,30.11,NNW,337,0.0,-999.0,82,-99.99,,,0.00,weatherlink.com 1.10,2013-02-03 03:27:00,
2013-02-02 21:42:00,13.4,9.0,30.12,NW,313,0.0,-999.0,82,-99.99,,,0.00,weatherlink.com 1.10,2013-02-03 03:42:00,
2013-02-02 21:57:00,13.6,9.0,30.12,NW,315,0.0,-999.0,82,-99.99,,,0.00,weatherlink.com 1.10,2013-02-03 03:57:00,
2013-02-02 22:13:00,13.7,9.0,30.11,NNW,328,0.0,-999.0,81,-99.99,,,0.00,weatherlink.com 1.10,2013-02-03 04:13:00,
2013-02-02 22:28:00,13.7,9.0,30.10,NW,318,5.0,-999.0,80,-99.99,,,0.00,weatherlink.com 1.10,2013-02-03 04:28:00,
2013-02-02 22:43:00,13.7,9.0,30.11,NW,309,0.0,-999.0,80,-99.99,,,0.00,weatherlink.com 1.10,2013-02-03 04:43:00,
2013-02-02 22:58:00,13.6,9.0,30.10,WNW,298,0.0,-999.0,80,-99.99,,,0.00,weatherlink.com 1.10,2013-02-03 04:58:00,
2013-02-02 23:12:00,13.2,8.0,30.09,WNW,298,0.0,-999.0,80,-99.99,,,0.00,weatherlink.com 1.10,2013-02-03 05:12:00,
2013-02-02 23:27:00,12.8,8.0,30.08,WNW,298,0.0,-999.0,80,-99.99,,,0.00,weatherlink.com 1.10,2013-02-03 05:27:00,
2013-02-02 23:43:00,12.4,8.0,30.08,WNW,298,0.0,-999.0,81,-99.99,,,0.00,weatherlink.com 1.10,2013-02-03 05:43:00,
2013-02-02 23:58:00,12.2,8.0,30.08,WNW,298,0.0,-999.0,82,-99.99,,,0.00,weatherlink.com 1.10,2013-02-03 05:58:00,